Skip Page Navigation
NASA JPL Caltech
NASA Logo - Jet Propulsion Laboratory + View the NASA Portal
+ Center for Near-Earth Object Studies
JPL Home Earth Solar System Stars & Galaxies Technology
JPL Solar System Dynamics
BODIES ORBITS EPHEMERIDES TOOLS PHYSICAL DATA DISCOVERY FAQ SITE MAP
JPL Small-Body Database Browser
Search: [ help ]  
243222 (2007 VV34)
Classification: Main-belt Asteroid          SPK-ID: 2243222
Ephemeris | Orbit Diagram | Orbital Elements | Mission Design | Physical Parameters | Discovery Circumstances | Close-Approach Data ]

[ show orbit diagram ]
Orbital Elements at Epoch 2459000.5 (2020-May-31.0) TDB
Reference: JPL 15 (heliocentric ecliptic J2000)
 Element Value Uncertainty (1-sigma)   Units 
e .06461569183295429 6.024e-08  
a 3.18698788502743 4.519e-08 au
q 2.981058457973139 2.0481e-07 au
i 11.81009486395368 7.2834e-06 deg
node 70.49078719532442 3.2551e-05 deg
peri 270.8151718448239 6.7523e-05 deg
M 149.1813673304895 5.7536e-05 deg
tp 2458139.345394971017
(2018-Jan-20.84539497)
0.00033707 TDB
period 2078.112457057989
5.69
4.42e-05
1.21e-07
d
yr
n .1732341282962409 3.6846e-09 deg/d
Q 3.392917312081722 4.811e-08 au
  Orbit Determination Parameters
   # obs. used (total)      255  
   data-arc span      6681 days (18.29 yr)  
   first obs. used      2001-10-19  
   last obs. used      2020-02-03  
   planetary ephem.      DE431  
   SB-pert. ephem.      SB431-N16  
   condition code      0  
   norm. resid. RMS      .62179  
   source      ORB  
   producer      Otto Matic  
   solution date      2020-Feb-25 09:18:41  

Additional Information
 Earth MOID = 2.00431 au 
 Jupiter MOID = 1.89168 au 
 T_jup = 3.162 
[ show covariance matrix ]

Ephemeris | Orbit Diagram | Orbital Elements | Mission Design | Physical Parameters | Discovery Circumstances | Close-Approach Data ]

Physical Parameter Table
Parameter Symbol Value Units Sigma Reference Notes
absolute magnitude H 15.3   n/a MPO503158  
diameter diameter 4.803 km 0.901 urn:nasa:pds:neowise_diameters_albedos::2.0[mainbelt] (http://adsabs.harvard.edu/abs/2011ApJ...741...68M)  
geometric albedo albedo 0.064   0.033 urn:nasa:pds:neowise_diameters_albedos::2.0[mainbelt] (http://adsabs.harvard.edu/abs/2011ApJ...741...68M)  

243222 (2007 VV34)          Discovered 2007-Nov-03 by Spacewatch at Kitt Peak
Reference: 20100626/Numbers.arcLast Updated: 2010-06-28

[ show close-approach data ]
Alternate Designations
 2007 VV34 = 2003 BE1 = 2007 UU48 
Ephemeris | Orbit Diagram | Orbital Elements | Mission Design | Physical Parameters | Discovery Circumstances | Close-Approach Data ]
ABOUT SSD CREDITS/AWARDS PRIVACY/COPYRIGHT GLOSSARY LINKS
FirstGov 2020-Aug-15 08:40 UT
(server date/time)  
NASA Home Page
Site Manager:   Ryan S. Park
Webmaster  Alan B. Chamberlin